Shelton, WA

10:54 AM PDT on August 17, 2017 (GMT -0700)
Sanderson

Weather History for KSHN - February, 2012

Change the Weather History Date:

Wednesday, February 22, 2012

  Actual Average Record
Temperature  
Mean Temperature 42 °F -  
Max Temperature 48 °F 51 °F 63 °F (1973)
Min Temperature 37 °F 35 °F 24 °F (2005)
Degree Days  
Heating Degree Days 22    
Moisture  
Dew Point 40 °F    
Average Humidity 82    
Maximum Humidity 93    
Minimum Humidity 71    
Precipitation  
Precipitation 0.42 in - - ()
Sea Level Pressure  
Sea Level Pressure 30.13 in    
Wind  
Wind Speed 20 mph (WSW)    
Max Wind Speed 26 mph    
Max Gust Speed 34 mph    
Visibility 9 miles    
Events Rain    
Averages and records for this station are not official NWS values.
T = Trace of Precipitation, MM = Missing Value Source: NWS Daily Summary

Daily Weather History Graph

Daily Weather History Graph

Search for Another Location

Airport or City:

Trip Planner

Search our weather history database for the weather conditions in past years. The results will help you decide how hot, cold, wet, or windy it might be!

Date:

Astronomy

Feb. 22, 2012 Rise Set
Actual Time 7:06 AM PST 5:46 PM PST
Civil Twilight 6:35 AM PST 6:17 PM PST
Nautical Twilight 5:59 AM PST 6:53 PM PST
Astronomical Twilight 5:24 AM PST 7:28 PM PST
Moon 7:00 AM PST (2/22) 7:08 PM PST (2/22)
Length of Visible Light 11h 42m
Length of Day
10h 40m
New Moon, 1% of the Moon is Illuminated
Feb 22
New Moon
Feb 29
First Quarter
Mar 8
Full
Mar 14
Last Quarter
Mar 22
New

Hourly Weather History & Observations

Time (PST) Temp. Windchill Dew Point Humidity Pressure Visibility Wind Dir Wind Speed Gust Speed Precip Events Conditions
12:31 AM 48.2 °F - 44.6 °F 87% 30.02 in 5.0 mi SW 24.2 mph 34.5 mph 0.04 in Rain Rain
12:53 AM 48.0 °F - 45.0 °F 89% 30.02 in 6.0 mi SW 21.9 mph 33.4 mph 0.06 in Rain Rain
1:53 AM 48.0 °F - 46.0 °F 93% 30.02 in 4.0 mi SW 21.9 mph 28.8 mph 0.14 in Rain Rain
2:30 AM 48.2 °F - 46.4 °F 93% 29.98 in 5.0 mi SW 23.0 mph 33.4 mph 0.08 in Rain Rain
2:53 AM 48.0 °F - 46.0 °F 93% 29.98 in 5.0 mi SW 26.5 mph 33.4 mph 0.13 in Rain Rain
3:53 AM 48.0 °F - 46.0 °F 93% 29.96 in 6.0 mi WSW 21.9 mph 33.4 mph 0.07 in Rain Light Rain
4:24 AM 48.2 °F - 46.4 °F 93% 29.95 in 10.0 mi WSW 23.0 mph 33.4 mph 0.00 in Rain Light Rain
4:53 AM 48.0 °F - 45.0 °F 89% 29.96 in 10.0 mi WSW 18.4 mph 32.2 mph 0.00 in   Overcast
5:53 AM 46.9 °F - 44.1 °F 90% 29.99 in 10.0 mi WSW 20.7 mph 31.1 mph N/A   Mostly Cloudy
6:36 AM 46.4 °F 39.2 °F 42.8 °F 87% 30.01 in 10.0 mi WSW 18.4 mph 25.3 mph N/A   Mostly Cloudy
6:53 AM 45.0 °F 37.9 °F 39.9 °F 82% 30.02 in 10.0 mi WSW 16.1 mph 23.0 mph N/A   Scattered Clouds
7:53 AM 43.0 °F 35.7 °F 37.0 °F 80% 30.06 in 10.0 mi WSW 15.0 mph 23.0 mph N/A   Clear
8:53 AM 44.1 °F 38.1 °F 37.9 °F 79% 30.09 in 10.0 mi WSW 11.5 mph 20.7 mph N/A   Clear
9:53 AM 46.0 °F 38.5 °F 37.0 °F 71% 30.13 in 10.0 mi WSW 19.6 mph 26.5 mph 0.00 in   Scattered Clouds
10:53 AM 46.0 °F 39.0 °F 37.0 °F 71% 30.16 in 5.0 mi West 17.3 mph 29.9 mph 0.00 in Rain Rain
11:53 AM 46.0 °F 39.6 °F 39.9 °F 79% 30.17 in 10.0 mi WSW 15.0 mph - 0.02 in   Partly Cloudy
12:53 PM 46.0 °F 38.5 °F 39.0 °F 76% 30.17 in 10.0 mi WSW 19.6 mph 29.9 mph 0.00 in   Clear
1:53 PM 46.0 °F 38.0 °F 39.0 °F 76% 30.18 in 10.0 mi WSW 21.9 mph 32.2 mph 0.00 in   Clear
2:36 PM 46.4 °F 39.2 °F 37.4 °F 71% 30.18 in 10.0 mi WSW 18.4 mph 31.1 mph 0.00 in Rain Light Rain
2:51 PM 46.4 °F 39.5 °F 37.4 °F 71% 30.18 in 10.0 mi WSW 17.3 mph 29.9 mph 0.00 in   Scattered Clouds
2:53 PM 46.9 °F - 37.9 °F 71% 30.19 in 10.0 mi West 15.0 mph 27.6 mph 0.00 in   Scattered Clouds
3:53 PM 45.0 °F 37.6 °F 36.0 °F 71% 30.21 in 10.0 mi WSW 17.3 mph 25.3 mph 0.00 in   Clear
4:53 PM 43.0 °F 35.1 °F 37.0 °F 80% 30.22 in 10.0 mi WSW 17.3 mph 29.9 mph N/A   Clear
5:53 PM 42.1 °F 34.2 °F 37.0 °F 82% 30.22 in 10.0 mi SW 16.1 mph 23.0 mph N/A   Mostly Cloudy
6:05 PM 42.8 °F 35.1 °F 37.4 °F 81% 30.20 in 10.0 mi WSW 16.1 mph 24.2 mph N/A   Scattered Clouds
6:53 PM 41.0 °F 33.1 °F 36.0 °F 82% 30.24 in 10.0 mi WSW 15.0 mph 23.0 mph N/A   Clear
7:53 PM 39.9 °F 31.1 °F 35.1 °F 83% 30.25 in 10.0 mi WSW 17.3 mph 24.2 mph N/A   Clear
8:53 PM 39.0 °F 32.3 °F 35.1 °F 86% 30.27 in 10.0 mi WSW 10.4 mph - N/A   Clear
9:53 PM 39.0 °F 31.4 °F 34.0 °F 82% 30.29 in 10.0 mi WSW 12.7 mph - N/A   Clear
10:53 PM 37.9 °F 28.2 °F 34.0 °F 86% 30.30 in 10.0 mi SW 18.4 mph - N/A   Clear
11:53 PM 37.9 °F 28.2 °F 34.0 °F 86% 30.32 in 10.0 mi SW 18.4 mph - N/A   Clear